This is the latest recevied weather packets stored in our database for station/object LOWELL-WX. If no packets are shown the sender has not sent any weather packets the latest 1 day(s).
| Time | Temp. | Humidity | Pressure | Rain* | Wind** | Luminosity | Snow |
|---|---|---|---|---|---|---|---|
| 1778072493 | 6.11° C | 67% | 990 hPa | 0 mm | - | - | - |
| 1778068904 | 4.44° C | 73% | 989 hPa | 0 mm | - | - | - |
| 1778067963 | 3.89° C | 76% | 988.4 hPa | 0 mm | - | - | - |
| 1778067079 | 3.33° C | 77% | 988.4 hPa | 0 mm | - | - | - |
| 1778066161 | 2.78° C | 77% | 988.4 hPa | 0 mm | - | - | - |
| 1778064360 | 2.78° C | 71% | 987.6 hPa | 0 mm | - | - | - |
| 1778062561 | 2.78° C | 75% | 988.1 hPa | 0 mm | - | - | - |
| 1778059877 | 3.33° C | 72% | 987.5 hPa | 0 mm | - | - | - |
| 1778058960 | 3.33° C | 72% | 987.5 hPa | 0 mm | - | - | - |
| 1778058098 | 3.89° C | 72% | 987.5 hPa | 0 mm | - | - | - |
| 1778057161 | 3.89° C | 70% | 987 hPa | 0 mm | - | - | - |
| 1778055360 | 3.89° C | 73% | 987.5 hPa | 0 mm | - | - | - |
| 1778054498 | 4.44° C | 73% | 987.5 hPa | 0 mm | - | - | - |
| 1778052679 | 4.44° C | 74% | 987.5 hPa | 0 mm | - | - | - |
| 1778051760 | 5° C | 74% | 987.5 hPa | 0 mm | - | - | - |
| 1778050889 | 5° C | 74% | 987.5 hPa | 0 mm | - | - | - |
| 1778049960 | 5° C | 69% | 987.9 hPa | 0 mm | - | - | - |
| 1778049078 | 5.56° C | 69% | 987.9 hPa | 0 mm | - | - | - |
| 1778048160 | 5.56° C | 69% | 987.9 hPa | 0 mm | - | - | - |
| 1778047307 | 6.11° C | 69% | 987.9 hPa | 0 mm | - | - | - |
| 1778045476 | 6.11° C | 72% | 987.8 hPa | 0 mm | - | - | - |
| 1778042761 | 6.11° C | 68% | 988.4 hPa | 0 mm | - | - | - |
| 1778041876 | 6.11° C | 70% | 987.9 hPa | 0 mm | - | - | - |
| 1778040960 | 6.67° C | 70% | 987.9 hPa | 0 mm | - | - | - |
| 1778040101 | 6.67° C | 70% | 987.9 hPa | 0 mm | - | - | - |
* Rain latest hour (hover to see other rain measurements)
** Current wind speed in m/s (hover to see current wind gust speed)